sat.trackr.live / text

‹ back to catalog

STARLINK-35517

NORAD 66244 · 2025-245L

PAYLOAD ACTIVE UNKNOWN

§ Identity

Operator
Country
US
Launch date
2025-10-29
Launch site
AFETR
Launch vehicle
Mass (kg)
RCS (m²)

Purposes: comms

External: N2YO · Heavens-Above · Gunter

§ Orbital elements

Epoch: 2026-05-25T02:55:17.573088Z

Period
94.10 min
Inclination
53.1611°
Eccentricity
0.0001369
Mean motion
15.30208223 rev/d
Perigee alt
474.3 km
Apogee alt
476.1 km
Semi-major
6,853.3 km
B*
4.8785e-4
RAAN
288.5151°
Arg perigee
96.0818°
Mean anomaly
264.0339°
Rev number
3,275

§ Raw data

STARLINK-355171 66244U 25245L   26145.12173117  .00014121  00000+0  48785-3 0  99942 66244  53.1611 288.5151 0001369  96.0818 264.0339 15.30208223 32752

JSON: /api/v1/satellites/66244 · /tle

For live sub-satellite position, see the globe view (requires WebGL).

§ Visibility from observer

Set your observer location to see the next 7 days of passes ≥ 10°. The values pass through the URL so the page stays shareable.

No JS? Fill the form by hand. The geolocation button needs JavaScript.